Location: Ellerstadt
(49.4644°N, 8.2615°E)
Time: 02:04:30
(UTC+00:00)

Transit 2A Rocket - Visible Passes

Search period start: 13 June 2021 00:00
Search period end: 23 June 2021 00:00
Orbit: 592 x 910 km, 66.7° (Epoch: 12 June)

Date Brightness Start Highest point End Pass type
(mag) Time Alt. Az. Time Alt. Az. Time Alt. Az.
13 Jun 5.0 01:30:05 17° S 01:33:08 49° ESE 01:37:24 10° NE visible
14 Jun 5.8 00:48:30 18° SSE 00:50:42 28° ESE 00:54:28 10° NE visible
14 Jun 5.4 02:28:57 10° WSW 02:33:03 42° NW 02:37:20 10° NNE visible
15 Jun 6.5 00:06:54 14° SE 00:08:22 16° ESE 00:11:06 10° ENE visible
15 Jun 4.7 01:46:47 15° SW 01:50:19 68° NW 01:54:48 10° NNE visible
16 Jun 4.5 01:05:08 23° SSW 01:07:42 71° ESE 01:12:08 10° NE visible
17 Jun 5.2 00:23:27 27° SSE 00:25:11 40° ESE 00:29:21 10° NE visible
17 Jun 5.9 02:03:54 10° WSW 02:07:48 32° NW 02:11:53 10° NNE visible
17 Jun 5.9 23:41:44 21° SE 23:42:47 23° ESE 23:46:17 10° ENE visible
18 Jun 5.2 01:21:36 15° WSW 01:25:00 49° NW 01:29:24 10° NNE visible
18 Jun 6.6 22:59:58 13° ESE 23:00:30 13° ESE 23:02:37 10° ENE visible
19 Jun 4.5 00:39:51 25° SW 00:42:18 82° NW 00:46:49 10° NE visible
19 Jun 6.8 02:22:29 10° WNW 02:25:36 19° NNW 02:28:51 10° NNE visible
19 Jun 4.7 23:58:03 34° S 23:59:43 58° ESE 00:04:07 10° NE visible
20 Jun 6.4 01:38:58 10° W 01:42:37 25° NW 01:46:26 10° NNE visible
20 Jun 5.4 23:16:12 29° SE 23:17:15 33° ESE 23:21:15 10° NE visible
21 Jun 5.7 00:56:05 12° WSW 00:59:44 37° NW 01:03:58 10° NNE visible
21 Jun 6.1 22:34:19 19° ESE 22:34:54 19° ESE 22:38:03 10° ENE visible
22 Jun 5.0 00:14:11 21° SW 00:16:57 59° NW 00:21:27 10° NNE visible
22 Jun 7.1 01:57:47 10° WNW 02:00:31 16° NNW 02:03:21 10° NNE visible
22 Jun 6.7 21:52:23 11° ESE 21:52:38 11° ESE 21:53:43 10° E visible
22 Jun 4.4 23:32:15 31° SSW 23:34:18 83° ESE 23:38:49 10° NE visible
